GW0876 Weather Reports


time (UTC)temp
C
wind
direction
speed
KPH
gust
KPH
rain 1hr
cm
rain 24hr
cm
rain mn
cm
humidity
%
barometer
mb
20260902152437 24 288 0.0 4.8 0.00 0.25 0.25 61 1019.5
20260902151437 23 295 0.0 3.2 0.00 0.25 0.25 62 1019.4
20260902150437 22 96 0.0 1.6 0.00 0.25 0.25 65 1019.8
20260902145440 21 289 0.0 3.2 0.00 0.25 0.25 69 1019.8
20260902144437 21 6 0.0 1.6 0.00 0.25 0.25 67 1019.7
20260902143919 21 123 0.0 3.2 0.00 0.25 0.25 67 1019.7
20260902142437 21 133 1.6 3.2 0.00 0.25 0.25 63 1019.7
20260902141437 22 51 0.0 3.2 0.00 0.25 0.25 63 1019.6
20260902141416 22 312 0.0 1.6 0.03 0.25 0.25 60 1019.8
20260902135442 22 44 0.0 3.2 0.03 0.23 0.25 66 1019.8
20260902134437 23 191 1.6 3.2 0.05 0.23 0.25 58 1020.1
20260902133437 21 294 0.0 1.6 0.25 0.23 0.25 65 1020.3
20260902132437 21 117 0.0 3.2 0.25 0.23 0.25 68 1020.2
20260902131922 18 117 0.0 1.6 0.23 0.23 0.23 80 1020.1
20260902130437 18 70 0.0 0.0 0.23 0.23 0.23 83 1020.3
20260902125437 18 44 0.0 4.8 0.23 0.00 0.23 79 1020.3
20260902124437 19 143 3.2 4.8 0.20 0.00 0.20 76 1020.5
20260902123437 21 135 0.0 3.2 0.00 0.00 0.00 61 1020.3
20260902122437 23 44 0.0 9.7 0.00 0.00 0.00 57 1020.3
20260902121437 25 93 1.6 6.4 0.00 0.00 0.00 46 1019.8
20260902120436 26 291 4.8 6.4 0.00 0.00 0.00 45 1019.8
20260902115437 25 315 0.0 8.0 0.00 0.00 0.00 46 1020.2
20260902114922 24 273 0.0 9.7 0.00 0.00 0.00 47 1020.3
20260902113437 25 299 0.0 6.4 0.00 0.00 0.00 47 1020.3
20260902112437 24 301 3.2 4.8 0.00 0.00 0.00 48 1020.5
20260902111437 25 75 3.2 8.0 0.00 0.00 0.00 48 1020.6
20260902110917 24 275 1.6 4.8 0.00 0.00 0.00 49 1020.6
20260902110353 25 107 0.0 6.4 0.00 0.00 0.00 50 1020.6
20260902104437 22 118 0.0 4.8 0.00 0.00 0.00 52 1020.8
20260902103437 23 287 0.0 4.8 0.00 0.00 0.00 50 1020.7
20260902102440 24 164 0.0 6.4 0.00 0.00 0.00 52 1020.8
20260902101436 24 307 0.0 4.8 0.00 0.00 0.00 52 1020.9
20260902100437 25 261 3.2 6.4 0.00 0.00 0.00 51 1020.9
20260902095436 23 247 0.0 6.4 0.00 0.00 0.00 53 1021.1
20260902094437 23 110 1.6 6.4 0.00 0.00 0.00 54 1021.2
20260902093437 23 88 0.0 6.4 0.00 0.00 0.00 55 1021.2
20260902092437 23 358 0.0 4.8 0.00 0.00 0.00 54 1021.2
20260902091437 21 164 0.0 9.7 0.00 0.00 0.00 56 1021.3
20260902090437 22 100 3.2 6.4 0.00 0.00 0.00 56 1021.4
20260902085437 22 291 1.6 6.4 0.00 0.00 0.00 55 1021.5
20260902084915 22 203 0.0 4.8 0.00 0.00 0.00 55 1021.4
20260902083436 22 2 1.6 4.8 0.00 0.00 0.00 54 1021.4
20260902082437 22 114 1.6 3.2 0.00 0.00 0.00 56 1021.5
20260902081436 21 128 0.0 4.8 0.00 0.00 0.00 56 1021.4
20260902080437 20 63 1.6 4.8 0.00 0.00 0.00 59 1021.3
20260902075436 20 273 0.0 4.8 0.00 0.00 0.00 61 1021.3
20260902074919 19 304 0.0 4.8 0.00 0.00 0.00 62 1021.3
20260902073437 19 99 0.0 3.2 0.00 0.00 0.00 62 1021.3
20260902072437 19 250 0.0 4.8 0.00 0.00 0.00 64 1021.1
20260902071437 18 297 0.0 4.8 0.00 0.00 0.00 64 1021.2
20260902070919 18 60 0.0 3.2 0.00 0.00 0.00 65 1021.2
20260902065437 18 286 0.0 4.8 0.00 0.00 0.00 67 1021.1
20260902064437 17 77 4.8 8.0 0.00 0.00 0.00 71 1020.9
20260902063437 16 152 4.8 8.0 0.00 0.00 0.00 73 1021.2
20260902062437 16 303 0.0 6.4 0.00 0.00 0.00 73 1021.1
20260902061920 15 356 0.0 4.8 0.00 0.00 0.00 76 1021.1
20260902060436 15 154 1.6 4.8 0.00 0.00 0.00 80 1020.9
20260902055437 14 319 1.6 6.4 0.00 0.00 0.00 82 1020.9
20260902054437 14 243 3.2 4.8 0.00 0.00 0.00 83 1021.0
20260902053437 13 269 1.6 4.8 0.00 0.00 0.00 86 1020.9
20260902052916 12 83 0.0 3.2 0.00 0.00 0.00 88 1021.0
20260902051437 12 86 1.6 3.2 0.00 0.00 0.00 89 1020.8
20260902050441 12 122 3.2 3.2 0.00 0.00 0.00 90 1020.7
20260902045436 12 15 0.0 4.8 0.00 0.00 0.00 91 1020.8
20260902044437 12 352 0.0 4.8 0.00 0.00 0.00 91 1020.7
20260902043437 12 178 3.2 3.2 0.00 0.00 0.00 91 1020.7
20260902042438 11 131 1.6 3.2 0.00 0.00 0.00 91 1020.6
20260902042407 11 138 0.0 3.2 0.00 0.00 0.00 91 1020.4
20260902040928 11 135 0.0 4.8 0.00 0.00 0.00 91 1020.5
20260902035437 11 315 0.0 4.8 0.00 0.00 0.00 91 1020.6
20260902034437 12 257 0.0 4.8 0.00 0.03 0.00 90 1020.6
20260902033437 12 98 3.2 4.8 0.00 0.03 0.00 90 1020.6
20260902032437 12 82 3.2 4.8 0.00 0.03 0.00 90 1020.6
20260902031437 12 303 0.0 4.8 0.00 0.03 0.00 89 1020.4
20260902030437 12 76 0.0 6.4 0.00 0.03 0.00 89 1020.5
20260902025437 12 51 3.2 4.8 0.00 0.03 0.00 89 1020.1
20260902024437 12 129 1.6 4.8 0.00 0.03 0.00 88 1020.5
20260902023437 12 271 0.0 6.4 0.00 0.03 0.00 88 1020.3
20260902022914 12 231 0.0 6.4 0.00 0.03 0.00 88 1020.5
20260902021916 12 35 0.0 6.4 0.00 0.03 0.00 87 1020.4
20260902020921 12 317 0.0 6.4 0.00 0.03 0.00 87 1020.5
20260902015437 12 23 3.2 6.4 0.00 0.03 0.00 87 1020.4
20260902014909 12 198 3.2 6.4 0.00 0.03 0.00 87 1020.5
20260902013437 12 203 1.6 6.4 0.00 0.03 0.00 87 1020.4
20260902012437 12 298 0.0 6.4 0.00 0.03 0.00 87 1020.5
20260902011437 12 193 4.8 8.0 0.00 0.03 0.00 87 1020.5
20260902010911 12 102 0.0 6.4 0.00 0.03 0.00 86 1020.4
20260902005910 13 229 4.8 6.4 0.00 0.03 0.00 85 1020.4
20260902004436 13 175 0.0 6.4 0.00 0.03 0.00 85 1020.5
20260902004400 13 44 0.0 1.6 0.00 0.03 0.00 85 1020.5
20260902002437 13 70 0.0 1.6 0.00 0.03 0.00 85 1020.4
20260902001438 13 95 0.0 3.2 0.00 0.03 0.00 85 1020.4
20260902000437 13 274 0.0 3.2 0.00 0.03 0.00 85 1020.3
20260901235921 13 315 0.0 3.2 0.00 0.03 0.00 85 1020.3
20260901234437 13 316 0.0 3.2 0.00 0.03 0.00 83 1020.4
20260901233436 13 108 0.0 3.2 0.00 0.03 0.00 81 1020.3
20260901232437 13 240 0.0 0.0 0.00 0.03 0.00 80 1020.2
20260901231437 14 62 0.0 1.6 0.00 0.03 0.00 79 1020.1
20260901230437 14 217 0.0 0.0 0.00 0.03 0.00 79 1020.2
20260901225910 14 250 0.0 1.6 0.00 0.03 0.00 79 1020.1
20260901224437 14 44 0.0 1.6 0.00 0.03 0.00 79 1020.2
20260901223437 15 275 0.0 0.0 0.00 0.03 0.00 77 1020.3
20260901222437 15 70 0.0 0.0 0.00 0.03 0.00 76 1020.1
20260901221437 15 76 0.0 0.0 0.00 0.03 0.00 75 1020.2
20260901220437 15 135 0.0 0.0 0.00 0.03 0.00 76 1020.2
20260901215437 15 53 0.0 0.0 0.00 0.03 0.03 75 1020.4
20260901214437 15 117 0.0 3.2 0.00 0.03 0.03 75 1020.3
20260901213436 15 117 0.0 3.2 0.00 0.03 0.03 74 1020.3
20260901212437 15 53 0.0 3.2 0.00 0.03 0.03 74 1020.4
20260901211437 16 269 0.0 3.2 0.00 0.03 0.03 73 1020.4
20260901210437 15 263 0.0 1.6 0.00 0.03 0.03 74 1020.2
20260901205437 16 108 0.0 0.0 0.00 0.03 0.03 73 1020.2
20260901204437 16 52 0.0 3.2 0.00 0.03 0.03 73 1019.9
20260901203918 16 308 0.0 3.2 0.00 0.03 0.03 72 1020.2
20260901202437 16 112 0.0 1.6 0.00 0.03 0.03 72 1019.9
20260901201442 16 96 0.0 1.6 0.00 0.03 0.03 72 1019.8
20260901200436 16 135 0.0 0.0 0.00 0.03 0.03 71 1019.9
20260901195437 16 244 0.0 1.6 0.00 0.03 0.03 71 1019.9
20260901194437 16 135 0.0 0.0 0.00 0.03 0.03 72 1019.8
20260901193437 16 259 0.0 0.0 0.00 0.03 0.03 71 1019.8
20260901192437 17 135 0.0 0.0 0.00 0.03 0.03 70 1019.7
20260901191436 17 288 0.0 0.0 0.00 0.03 0.03 69 1020.1
20260901190437 17 117 0.0 1.6 0.00 0.03 0.03 69 1019.8
20260901185438 17 95 0.0 0.0 0.00 0.03 0.03 69 1019.7
20260901184436 17 53 0.0 0.0 0.00 0.03 0.03 70 1019.5
20260901183919 17 53 0.0 0.0 0.00 0.03 0.03 70 1019.7
20260901182920 17 53 0.0 0.0 0.00 0.03 0.03 69 1019.8
20260901181436 17 82 0.0 0.0 0.00 0.03 0.03 68 1019.5
20260901180438 18 135 0.0 0.0 0.00 0.03 0.03 67 1019.6
20260901175438 18 135 0.0 0.0 0.00 0.03 0.03 66 1019.5
20260901174436 18 44 0.0 0.0 0.00 0.03 0.03 65 1019.5
20260901173437 19 35 0.0 0.0 0.00 0.03 0.03 63 1019.2
20260901172437 19 106 0.0 0.0 0.00 0.03 0.03 62 1018.9
20260901171438 20 62 0.0 1.6 0.00 0.03 0.03 61 1019.0
20260901170437 20 62 0.0 3.2 0.00 0.03 0.03 59 1018.9
20260901170357 20 69 0.0 3.2 0.00 0.03 0.03 58 1018.8
20260901164946 21 44 0.0 3.2 0.00 0.03 0.03 57 1018.8
20260901163437 21 315 0.0 4.8 0.00 0.03 0.03 55 1018.8
20260901162928 22 92 3.2 4.8 0.00 0.03 0.03 52 1018.9
20260901161437 23 284 0.0 4.8 0.00 0.03 0.03 50 1018.7
20260901160437 23 79 1.6 4.8 0.00 0.03 0.03 50 1018.7
20260901155437 23 315 0.0 4.8 0.00 0.03 0.03 50 1018.5
20260901154437 23 19 0.0 6.4 0.00 0.03 0.03 50 1018.7